Location: Goheenville
(40.9070°N, 79.3720°W)
Time: 03:11:33
(UTC-05:00)

Daily predictions for brighter satellites

Satellite Brightness Start Highest point End
(mag) Time Altitude Azimuth Time Altitude Azimuth Time Altitude Azimuth
CZ-3 R/B 4.1 03:22:47 49° S 03:23:44 49° S 03:33:58 10° ESE
CENTAUR R/B 3.8 03:37:03 41° N 03:39:02 48° NE 03:47:09 10° ESE
Lacrosse 5 rocket 4.0 04:23:35 15° NE 04:23:35 15° NE 04:25:20 10° ENE
ADEOS II 4.4 04:28:17 10° N 04:28:49 13° N 04:28:49 13° N
Cosmos 1697 Rocket 4.0 04:30:58 15° SSE 04:35:02 37° ESE 04:40:09 10° NE
Cosmos 2227 Rocket 2.2 04:35:29 70° NNE 04:36:00 76° ENE 04:41:38 10° SSE
SJ 16-02 4.2 04:43:17 10° SE 04:46:12 17° E 04:49:07 10° NE
BREEZE-M DEB (TANK) 4.1 04:47:31 50° S 04:47:31 50° S 04:56:16 10° SE
Cosmos 2297 Rocket 2.1 04:48:19 40° NNW 04:50:27 85° ENE 04:56:07 10° SSE
Cosmos 1898 Rocket 3.6 04:52:25 62° NNW 04:52:25 62° NNW 04:57:06 10° NNE
CZ-4B R/B 3.1 04:51:21 10° NNE 04:56:48 87° WNW 04:59:13 35° SSW
OAO 3 Rocket 3.9 04:59:00 42° S 04:59:00 42° S 05:03:41 10° ESE
Cosmos 1937 Rocket 3.3 04:58:59 67° SW 04:59:39 81° WNW 05:04:56 10° NNE
CZ-2C R/B 4.3 04:59:03 10° SSE 05:03:41 60° ENE 05:08:16 10° N
Cosmos 1869 Rocket 4.1 05:00:27 10° N 05:04:49 58° E 05:09:11 10° SSE
Okean O Rocket 2.8 05:01:01 10° N 05:03:28 31° NNW 05:03:28 31° NNW
CZ-4B DEB 4.1 05:00:35 10° N 05:06:00 63° WNW 05:07:14 49° SW
CZ-4B R/B 4.1 05:01:37 10° N 05:05:44 67° NW 05:05:44 67° NW
Cosmos 1707 Rocket 4.3 05:06:44 10° S 05:11:03 53° E 05:15:25 10° NNE
Cosmos 1862 4.0 05:08:58 10° N 05:12:52 52° E 05:16:45 10° SSE
Cosmos 1821 Rocket 3.8 05:07:00 10° S 05:13:06 81° W 05:19:21 10° N
PAYLOAD B 4.3 05:10:41 10° N 05:15:58 50° WNW 05:17:14 42° WSW
Cosmos 2082 3.6 05:12:39 22° NNW 05:16:26 67° WSW 05:22:04 10° S
Cosmos 990 Rocket 4.0 05:16:53 45° WSW 05:18:10 57° WNW 05:23:22 10° NNE
Cosmos 2278 3.7 05:16:08 37° SW 05:18:20 63° WNW 05:24:01 10° NNE
ASTRO E2 4.4 05:18:27 21° S 05:18:39 21° S 05:21:43 10° SE
Cosmos 1535 Rocket 4.3 05:17:48 10° S 05:23:58 79° W 05:30:07 10° N
Aureole 1 Rocket 4.1 05:17:23 10° NNW 05:25:15 89° WSW 05:31:19 10° SSE
Centaur D-1A AC-31 3.5 05:25:11 18° SW 05:28:35 31° SSE 05:44:27 10° ESE
DELTA 2 R/B(2) 4.4 05:28:42 56° SW 05:29:04 61° SSW 05:31:31 10° ESE
CENTAUR R/B 3.4 05:24:20 19° NW 05:29:54 47° WSW 05:37:55 10° S
SKYMED 2 3.6 05:27:23 10° SSE 05:31:43 83° ENE 05:36:05 10° N
Cosmos 2298 Rocket 4.2 05:30:28 30° WSW 05:32:38 47° WNW 05:37:46 10° N
Genesis I 3.5 05:34:16 44° WNW 05:34:44 46° NW 05:38:36 10° NNE
EO 1 Del DPAF 4.4 05:32:47 10° SE 05:36:25 44° ENE 05:40:05 10° N
Tiangong 1 2.4 05:38:04 21° SSE 05:38:04 21° SSE 05:39:12 10° SE
Feng Yun 1-1 Rocket 4.3 05:32:22 10° NNE 05:37:55 84° ESE 05:43:34 10° SSW
NOSS 8 (H) 4.3 05:37:50 42° WSW 05:38:48 69° NW 05:42:17 10° NNE
Geosat 4.2 05:35:27 10° SE 05:40:27 75° ENE 05:45:29 10° NNW
Cosmos 2369 4.3 05:42:15 25° WSW 05:44:47 37° WNW 05:50:04 10° N
Cosmos 1980 Rocket 2.2 05:41:03 10° SSW 05:46:44 85° ESE 05:52:26 10° NNE
IDEFIX/ARIANE 42P 2.5 05:42:56 10° N 05:48:10 73° WNW 05:53:21 10° SSW
NOAA 6 3.9 05:43:28 10° N 05:48:38 69° WNW 05:53:44 10° SSW
Cosmos 405 4.1 05:45:55 10° N 05:49:23 47° ENE 05:52:49 10° SSE
Landsat 4 3.5 05:50:40 10° S 05:54:23 81° WSW 05:58:08 10° NNW
Okean-O 2.5 05:50:05 10° N 05:54:31 71° WNW 05:58:55 10° SSW
Cosmos 1605 Rocket 3.9 05:52:07 10° SSW 05:58:16 72° W 06:04:22 10° N
Lacrosse 5 rocket 1.3 05:59:17 13° NW 06:02:41 79° NE 06:06:47 10° SE
DMSP B5D1-3 4.4 05:57:37 10° S 06:02:42 80° WSW 06:07:49 10° NNW
Cosmos 1441 Rocket 3.8 05:59:26 10° S 06:03:21 64° E 06:07:19 10° NNE
ATLAS 5 CENTAUR R/B 3.2 06:08:25 10° S 06:12:33 39° ESE 06:17:02 10° NE
Meteor 2-10 Rocket 4.2 06:09:13 10° SW 06:13:36 29° WNW 06:17:57 10° NNW
SL-16 R/B 3.3 06:10:25 10° S 06:15:50 49° ESE 06:21:17 10° NE
Cosmos 1862 Rocket 3.5 06:12:07 10° S 06:16:26 88° W 06:20:50 10° N
PAYLOAD A 4.4 06:13:14 10° N 06:17:35 37° WNW 06:22:01 10° SW
Cosmos 1697 Rocket 3.4 06:14:02 10° WSW 06:19:00 32° WNW 06:24:00 10° N
Cosmos 1733 Rocket 3.0 06:14:40 10° NNW 06:19:01 75° W 06:23:24 10° S
Cosmos 2227 Rocket 3.7 06:17:25 12° WNW 06:19:18 14° W 06:22:10 10° SW
COSMO-SKYMED 1 3.4 06:16:13 10° SSW 06:19:57 28° W 06:23:44 10° NW
MSX 3.9 06:17:50 10° N 06:23:30 60° WNW 06:29:09 10° SSW
SJ 16-02 1.8 06:20:15 10° SW 06:24:26 41° WNW 06:28:38 10° N
SJ-12 4.0 06:25:02 10° N 06:29:05 54° WNW 06:33:07 10° SSW
Cosmos 1633 3.0 06:26:16 10° N 06:29:53 66° E 06:33:30 10° SSE
Cosmos 1048 Rocket 4.1 06:26:03 10° NNW 06:31:06 55° WSW 06:36:04 10° S
Cosmos 2297 Rocket 3.9 06:31:29 10° WNW 06:33:38 12° W 06:35:48 10° WSW
CZ-2C R/B 3.0 06:29:15 10° N 06:33:53 38° WNW 06:38:36 10° SW
Cosmos 2173 Rocket 4.1 06:28:51 10° S 06:35:05 85° E 06:41:16 10° N
COSMOS 2455 2.9 06:29:28 10° NNW 06:35:32 78° WSW 06:41:32 10° SSE
Cosmos 1459 Rocket 4.1 06:32:44 10° S 06:38:58 88° WNW 06:45:19 10° N
Cosmos 1484 Rocket 2.8 06:35:49 10° N 06:39:45 67° WNW 06:43:43 10° SSW
